Flag for U.S.A. Weather past 2 weeks in Cedar Rapids, Iowa, U.S.A.

Now
50 °F

Passing clouds.


Feels Like: 43 °F
Forecast: 36 / 53 °F
Wind: 22 mph from Southeast

Location: Cedar Rapids Municipal Airport


UV Index: 0 (Low)

Visibility: 10 mi


Pressure: 29.91 "Hg

Humidity: 43%

Dew point: 28 °F

Location of Cedar RapidsLocation

Historic Weather in Cedar Rapids

°F

Cedar Rapids temperature yesterday

Maximum temperature yesterday: 40 °F (at 4:52 PM)
Minimum temperature yesterday: 24 °F (at 5:52 AM)
Average temperature yesterday: 31 °F

Past Weeks' High & Low Weather Summary

 TemperatureHumidityPressure
High83 °F (Apr 12, 4:52 PM)100% (Apr 3, 11:52 PM)30.22 "Hg (Apr 3, 11:52 PM)
Low15 °F (Apr 4, 5:52 AM)15% (Apr 10, 12:52 PM)29.43 "Hg (Apr 13, 4:52 PM)
Average46 °F58%29.89 "Hg
* Reported Apr 1 9:52 PM — Apr 16 9:52 PM, Cedar Rapids, Weather by CustomWeather, © 2014

Note: Actual official high and low records may vary slightly from our data, if they occured in-between our weather recording intervals... More about our weather records

Advertising

Historic Weather Conditions — Data for Previous 24 hours

 ConditionsComfort  
Time TempWeatherWind HumidityBarometerVisibility
9:52 PM
Apr 16
50 °FPassing clouds.22 mph43%29.91 "Hg10 mi
8:52 PM51 °FPassing clouds.21 mph41%29.90 "Hg10 mi
7:52 PM53 °FOvercast.20 mph38%29.90 "Hg10 mi
6:52 PM55 °FOvercast.21 mph35%29.90 "Hg10 mi
5:52 PM56 °FSunny.20 mph34%29.90 "Hg10 mi
4:52 PM57 °FSunny.22 mph33%29.88 "Hg10 mi
3:52 PM56 °FSunny.25 mph33%29.90 "Hg10 mi
2:52 PM57 °FSunny.29 mph33%29.93 "Hg10 mi
1:52 PM58 °FSunny.28 mph35%29.94 "Hg10 mi
12:52 PM56 °FSunny.23 mph39%29.97 "Hg10 mi
11:52 AM51 °FSunny.26 mph44%30.00 "Hg10 mi
10:52 AM48 °FSunny.22 mph46%30.03 "Hg10 mi
9:52 AM44 °FSunny.20 mph51%30.05 "Hg10 mi
8:52 AM40 °FSunny.16 mph55%30.06 "Hg10 mi
7:52 AM37 °FPartly sunny.20 mph57%30.07 "Hg10 mi
6:52 AM36 °FOvercast.17 mph57%30.06 "Hg10 mi
5:52 AM36 °FOvercast.15 mph57%30.07 "Hg10 mi
4:52 AM35 °FOvercast.13 mph59%30.06 "Hg10 mi
3:52 AM33 °FPassing clouds.10 mph63%30.07 "Hg10 mi
2:52 AM32 °FClear.13 mph64%30.08 "Hg10 mi
1:52 AM33 °FClear.13 mph58%30.09 "Hg10 mi
12:52 AM32 °FPassing clouds.13 mph56%30.10 "Hg10 mi
11:52 PM
Apr 15
31 °FClear.12 mph59%30.11 "Hg10 mi
Weather by CustomWeather, © 2014

See weather overview